Weather in Dmitriyevka

Russia / Orenburg Oblast     52°00′21″N   55°31′14″E
temp.,
°C
wind,
m/s
gust,
m/s
humid.,
%
clouds,
%
prec.,
mm/h
press.,
hPa
HPBL,
m
8 march, mon
mon823:00−15sw349123 0.0 101644
02:00−16ssw369481 0.0 101591
05:00−13ssw5109591 0.1 1014269
08:00−10ssw71594100 0.2 1012661
11:00−6ssw101789100 0.5 1011934
14:00−4sw111791100 0.3 10101104
17:00−3sw91593100 0.8 10101124
20:00−3sw81494100 0.7 1011900
9 march, tue
tue923:00−3ssw81595100 1.2 1010847
02:00−3ssw91594100 0.6 1009762
05:00−4sw81592100 0.8 1010656
08:00−4sw71394100 0.6 1011569
11:00−3sw6994100 0.8 1012524
14:00−1sw4693100 0.2 1012526
17:00−1s4696100 0.5 1011430
20:00−2s4797100 0.6 1009283
10 march, wed
wed1023:00−2s5997100 1.4 1008409
02:00−2s61297100 1.1 1004493
05:00−3s71396100 2.9 1002723
08:00−8wnw91792100 1.6 1002589
11:00−8w9138899 1.8 1005803
14:00−9w81287100 0.0 1008697
17:00−10w71188100 0.0 1010721
20:00−12w51192100 0.1 1012509
11 march, thu
thu1123:00−15wnw51092100 0.1 1014345
02:00−17nw4993100 0.1 1015344
05:00−22wnw379396 0.1 1017142
08:00−25wnw359463 0.0 101981
11:00−22nw479134 0.0 1021348
14:00−19nw468813 0.0 1022417
17:00−19wnw468813 0.0 1023401
20:00−24wnw33930 0.0 102521
12 march, fri
fri1223:00−26wnw22950 0.0 102819
02:00−26wnw229730 0.0 102919
05:00−26wnw229837 0.0 103019
08:00−27wnw129848 0.0 103119
11:00−21nw239238 0.0 1031214
14:00−16nw248886 0.0 1031377
17:00−15nw359191 0.0 1030326
20:00−20nw339612 0.0 103120